Location: Albuquerque Trailhead
(34.7934°N, 106.3736°W)
Time: 00:07:01
(UTC+00:00)

BREEZE-M DEB (TANK) - Pass Details

Date: 20 June 2021
Orbit: 318 x 12038 km, 49.6° (Epoch: 01 August)

Event Time Altitude Azimuth Distance (km) Brightness Sun altitude
Rises 03:16:14 0° 228° (SW) 2,523 5.6 -10.1°
Reaches altitude 10° 03:18:32 10° 228° (SW) 1,337 4.2 -10.5°
Maximum altitude 03:20:58 83° 142° (SE) 323 0.8 -10.9°
Drops below altitude 10° 03:23:26 10° 52° (NE) 1,348 4.0 -11.3°
Sets 03:25:45 0° 52° (NE) 2,550 5.4 -11.6°
